Location: Buckenweiler
(49.0667°N, 10.2500°E)
Time: 02:00:55
(UTC+00:00)

Cosmos 1408 Rocket - Pass Details

Date: 18 January 2026
Orbit: 593 x 623 km, 82.6° (Epoch: 6 February)

Event Time Altitude Azimuth Distance (km) Brightness Sun altitude
Exits shadow 05:28:02 27° 269° (W) 1,174 4.4 -15.6°
Maximum altitude 05:28:49 29° 289° (WNW) 1,126 4.3 -15.5°
Drops below altitude 10° 05:32:34 10° 350° (N) 1,950 5.9 -14.9°
Sets 05:35:02 0° 2° (N) 2,854 6.8 -14.5°
